[[[{"header":{"parameterUnit":"kt","parameterCategory":2,"dx":1,"dy":1,"la1":30.253999710083008,"la2":30.299108505249023,"lo1":-89.0895004272461,"lo2":-89.04439544677734,"nx":28,"ny":28,"refTime":"2022-10-31T21:00:00:Z","depth":"0","parameterNumber":2,"parameterNumberName":"U-component_of_CURRENTS"},"data":[0.5731,0.5755,0.5715,0.5649,0.5642,0.552,0.5468,0.5396,0.5533,0.562,0.5754,0.6004,0.6109,0.5989,0.5659,0.5536,0.508,0.4842,0.4923,0.5448,0.5516,0.5581,0.5278,0.493,0.4929,0.3635,0.3625,0.3618,0.5684,0.5688,0.5763,0.5797,0.5796,0.5863,0.5917,0.5836,0.5867,0.6238,0.6443,0.6642,0.6666,0.6798,0.6645,0.6384,0.6039,0.6177,0.5564,0.547,0.6399,0.6113,0.5937,0.5937,0.5938,0.5938,0.5938,0.5939,0.5615,0.5657,0.5732,0.5805,0.5899,0.5937,0.5923,0.6074,0.6208,0.64,0.678,0.7014,0.7219,0.7593,0.7651,0.7369,0.7365,0.7017,0.6984,0.6746,0.6322,0.7305,0.7502,0.7507,0.7511,0.7515,0.7518,0,0.5555,0.5587,0.5666,0.5765,0.5862,0.5957,0.6085,0.6163,0.6374,0.6563,0.6863,0.7091,0.7584,0.7644,0.8,0.8055,0.7539,0.795,0.7716,0.6671,0.6276,0.6077,0.7073,0.7318,0.7322,0.7325,0.7327,0.7329,0.5506,0.5541,0.5666,0.5733,0.5793,0.5914,0.6005,0.6152,0.6265,0.6641,0.6754,0.7183,0.7402,0.7937,0.8005,0.8264,0.7966,0.8038,0.7634,0.7352,0.7268,0.696,0.677,0.7372,0.7366,0.7362,0.7358,0,0.5497,0.554,0.5632,0.5748,0.5789,0.5872,0.6043,0.6148,0.6305,0.6527,0.6603,0.6867,0.7221,0.743,0.7792,0.7743,0.7759,0.8076,0.7675,0.764,0.7326,0.7231,0.7166,0.6966,0.8252,0.8255,0.8256,0,0.5502,0.5563,0.5645,0.5685,0.5794,0.5868,0.6002,0.6095,0.6263,0.6408,0.649,0.6667,0.6815,0.7097,0.7206,0.7491,0.7573,0.7505,0.7532,0.7145,0.7108,0.6869,0.6748,0.755,0.7545,0.7541,0.7538,0,0.5472,0.5587,0.5645,0.5686,0.5801,0.5862,0.5928,0.6052,0.6138,0.6307,0.6421,0.6545,0.6692,0.6835,0.7046,0.6905,0.7452,0.7261,0.7386,0.7389,0.7086,0.7049,0.7075,0.7532,0.7531,0.753,0.7528,0,0.5484,0.5534,0.562,0.5724,0.5752,0.5812,0.5938,0.6005,0.6134,0.6181,0.6261,0.6291,0.6479,0.6386,0.6705,0.6557,0.6707,0.6825,0.6844,0.6764,0.6665,0.6747,0.6959,0.6678,0.7047,0.7041,0.7036,0,0.5431,0.5514,0.5553,0.5649,0.5695,0.5743,0.581,0.5874,0.5921,0.6015,0.6059,0.6143,0.6061,0.6129,0.6231,0.638,0.6555,0.6317,0.6615,0.6627,0.6601,0.6852,0.6453,0.6881,0.6965,0.6972,0.6978,0,0.5383,0.546,0.5476,0.5516,0.5584,0.5624,0.5691,0.576,0.5828,0.5832,0.5943,0.5993,0.599,0.6008,0.6015,0.6143,0.6445,0.6119,0.6121,0.6367,0.6803,0.6762,0.6807,0.6382,0.6388,0.6393,0.6921,0,0.538,0.5417,0.544,0.5498,0.5538,0.5584,0.5619,0.5644,0.565,0.5672,0.5743,0.5744,0.5782,0.5813,0.5809,0.598,0.6009,0.591,0.5874,0.5997,0.621,0.6256,0.5673,0.567,0.5667,0.5665,0,0,0.5324,0.5362,0.5369,0.5418,0.5457,0.5465,0.552,0.5537,0.5551,0.5573,0.5539,0.5593,0.5587,0.569,0.5733,0.5694,0.5788,0.5701,0.5901,0.5927,0.5951,0.6162,0.6209,0.566,0.5659,0.5658,0.5657,0,0.5324,0.5322,0.535,0.5389,0.5433,0.545,0.5469,0.5497,0.5504,0.5525,0.5507,0.5546,0.552,0.5556,0.5572,0.5649,0.5697,0.5638,0.5755,0.5873,0.5903,0.593,0.6143,0.6187,0.5651,0.5651,0.5651,0,0.53,0.5318,0.5329,0.5368,0.539,0.5436,0.5425,0.5462,0.55,0.544,0.5448,0.5441,0.5428,0.546,0.5467,0.5435,0.5628,0.5489,0.5501,0.5518,0.5637,0.567,0.5699,0.5335,0.5334,0.5334,0,0,0.5298,0.5315,0.5353,0.5371,0.5387,0.5416,0.5436,0.5448,0.5452,0.545,0.5422,0.5399,0.5416,0.5412,0.5392,0.5413,0.5474,0.5458,0.5472,0.5485,0.5509,0.563,0.5661,0.5333,0.5333,0.5333,0,0,0.5302,0.5336,0.5337,0.5355,0.5394,0.5425,0.5439,0.5453,0.5445,0.5433,0.54,0.539,0.5409,0.5365,0.5351,0.5408,0.5336,0.5338,0.5467,0.5484,0.5498,0.5538,0.5317,0,0,0,0,0,0.5326,0.5335,0.5336,0.5343,0.5376,0.5425,0.543,0.5439,0.5434,0.545,0.5418,0.5397,0.5351,0.5338,0.5331,0.5407,0.5316,0.5319,0.5321,0.549,0.5509,0.5525,0,0,0,0,0,0,0.5329,0.5336,0.5336,0.5367,0.5375,0.5423,0.5402,0.5404,0.5432,0.5431,0.5403,0.5395,0.5363,0.5339,0.5333,0.5408,0.5319,0.5317,0.5319,0.5322,0.5496,0.5512,0.5525,0,0,0,0,0,0.5331,0.5338,0.5385,0.5367,0.5374,0.5396,0.5401,0.5403,0.542,0.539,0.5384,0.543,0.5364,0.5356,0.5336,0.5413,0.5323,0.5321,0.5318,0.532,0.5322,0.5504,0,0,0,0,0,0,0.5333,0.533,0.5387,0.539,0.5361,0.5393,0.5397,0.5401,0.5375,0.5373,0.5412,0.5411,0.5364,0.5359,0.5353,0.5419,0.5326,0.5324,0.5323,0.532,0.5322,0.5323,0,0,0,0,0,0,0.5328,0.5333,0.5388,0.5381,0.5383,0.5391,0.5394,0.5374,0.5372,0.5396,0.5397,0.5412,0.5357,0.536,0.5356,0.5326,0.5328,0.5326,0.5325,0.5324,0.5321,0.5322,0,0,0,0,0,0,0.533,0.5334,0.5379,0.5381,0.5383,0.5416,0.5371,0.5389,0.5412,0.5395,0.5411,0.541,0.5358,0.5354,0.5358,0.533,0.5327,0.5328,0.5327,0.5326,0.5325,0,0,0,0,0,0,0,0.5332,0.53,0.5375,0.5381,0.5383,0.5423,0.5423,0.5423,0.5412,0.5411,0.5411,0.541,0.534,0.5338,0.5336,0.5333,0,0,0.5329,0.5328,0,0,0,0,0,0,0,0,0.5299,0.53,0.5375,0.5376,0.5377,0.5423,0.5423,0.5423,0.5412,0.5411,0.5411,0.541,0.534,0.5338,0.5336,0,0,0,0,0,0,0,0,0,0,0,0,0,0,0,0.5375,0.5376,0,0.5423,0.5423,0.5423,0.5412,0.5411,0.5411,0.5411,0.5339,0.5338,0.5336,0,0,0,0,0,0,0,0,0,0,0,0,0,0,0,0,0,0,0,0,0,0,0,0,0,0,0,0,0,0,0,0,0,0,0,0,0,0,0,0,0,0,0,0,0,0,0,0,0,0,0,0,0,0,0,0,0,0,0,0,0,0,0,0,0,0,0,0,0]}],[{"header":{"parameterUnit":"kt","parameterCategory":2,"dx":1,"dy":1,"la1":30.253999710083008,"la2":30.299108505249023,"lo1":-89.0895004272461,"lo2":-89.04439544677734,"nx":28,"ny":28,"refTime":"2022-10-31T21:00:00:Z","depth":"0","parameterNumber":3,"parameterNumberName":"V-component_of_CURRENTS"},"data":[0.0794,0.1046,0.115,0.156,0.1764,0.2094,0.2292,0.2663,0.3048,0.3629,0.397,0.4181,0.3557,0.1369,-0.0156,-0.0496,-0.0988,-0.0992,-0.1249,-0.0982,-0.0962,-0.0944,-0.1047,-0.1145,-0.1146,-0.1818,-0.1825,-0.1831,0.0682,0.0836,0.1084,0.1373,0.1629,0.1707,0.2078,0.2303,0.2719,0.3191,0.3497,0.3553,0.2853,0.2062,0.0845,0.0187,-0.0123,-0.0185,-0.0486,-0.0575,0.005,-0.0004,0.0119,0.0119,0.0119,0.012,0.012,0.012,0.0485,0.0639,0.0823,0.1077,0.1314,0.1589,0.1802,0.2079,0.2426,0.2808,0.2898,0.3201,0.2686,0.2055,0.155,0.0644,0.0583,0.0249,0.0048,-0.0057,-0.022,0.0527,0.0733,0.0733,0.0732,0.0732,0.0731,0,0.0319,0.0386,0.0533,0.0795,0.1005,0.1241,0.1487,0.1677,0.1855,0.2099,0.2407,0.252,0.2327,0.2002,0.1516,0.1172,0.0287,0.0546,0.0196,-0.0237,-0.0347,-0.054,0.0054,0.0328,0.0325,0.0323,0.0321,0.032,0.0126,0.0218,0.0408,0.0545,0.0615,0.0843,0.1024,0.1132,0.1322,0.1584,0.1746,0.1807,0.1897,0.1617,0.1124,0.0758,0.0349,0.0488,0.0204,-0.0082,-0.0363,-0.0512,-0.0629,0.0289,0.0293,0.0296,0.0299,0,0.0037,0.0043,0.021,0.0327,0.0391,0.0562,0.0776,0.096,0.1033,0.1298,0.1338,0.13,0.1259,0.0946,0.0692,0.0375,0.0058,0.0146,0.0221,0.0164,-0.0203,-0.0407,-0.038,-0.0497,0.0173,0.0177,0.018,0,-0.0126,-0.0024,0.0023,0.0089,0.0311,0.0287,0.0534,0.0578,0.0701,0.0916,0.0734,0.0878,0.0504,0.0454,0.0144,0.0028,0.0021,-0.0226,-0.0291,-0.03,-0.0295,-0.0596,-0.0811,-0.0372,-0.0374,-0.0375,-0.0376,0,-0.0283,-0.0198,-0.0079,-0.0067,-0.0007,0.0091,0.0144,0.022,0.0337,0.0399,0.0488,0.0399,0.04,0.0194,-0.006,-0.0205,-0.0132,-0.0389,-0.0383,-0.0379,-0.037,-0.037,-0.0419,-0.0378,-0.0378,-0.0379,-0.038,0,-0.0451,-0.04,-0.0272,-0.0196,-0.0173,-0.0115,0.0004,0.005,0.011,0.0102,0.0102,-0.0009,-0.001,-0.0248,-0.0339,-0.0403,-0.0536,-0.0642,-0.0642,-0.0585,-0.0786,-0.0602,-0.0358,-0.0682,-0.0711,-0.0714,-0.0717,0,-0.0603,-0.0497,-0.0548,-0.0438,-0.0395,-0.0478,-0.0403,-0.0388,-0.0413,-0.0343,-0.0434,-0.0404,-0.0622,-0.0628,-0.0666,-0.0805,-0.0763,-0.0861,-0.0929,-0.0927,-0.0844,-0.0619,-0.0592,-0.0413,-0.0753,-0.0749,-0.0747,0,-0.0743,-0.0763,-0.0751,-0.0716,-0.0783,-0.0765,-0.0723,-0.0693,-0.06,-0.0714,-0.0597,-0.07,-0.0779,-0.0803,-0.0928,-0.0925,-0.083,-0.1073,-0.1079,-0.0981,-0.078,-0.0684,-0.0651,-0.0971,-0.0966,-0.0963,-0.0776,0,-0.094,-0.0907,-0.0871,-0.0877,-0.0892,-0.0874,-0.0952,-0.0954,-0.1019,-0.1053,-0.102,-0.1168,-0.1182,-0.1218,-0.1315,-0.1202,-0.1239,-0.1373,-0.1424,-0.1299,-0.1238,-0.1214,-0.1547,-0.1551,-0.1554,-0.1556,0,0,-0.1085,-0.1037,-0.1119,-0.1086,-0.109,-0.1229,-0.118,-0.1227,-0.1325,-0.1293,-0.1395,-0.1453,-0.1544,-0.1467,-0.1447,-0.1528,-0.1527,-0.1476,-0.1378,-0.1358,-0.134,-0.1274,-0.1248,-0.1562,-0.1563,-0.1564,-0.1565,0,-0.1164,-0.1186,-0.113,-0.117,-0.1223,-0.1288,-0.1281,-0.1378,-0.14,-0.1436,-0.1529,-0.1555,-0.1639,-0.1648,-0.1668,-0.158,-0.1619,-0.1599,-0.1397,-0.1406,-0.1381,-0.136,-0.129,-0.1265,-0.1572,-0.1571,-0.1571,0,-0.1297,-0.1317,-0.1302,-0.1334,-0.1383,-0.1382,-0.149,-0.1503,-0.1489,-0.1652,-0.1649,-0.1735,-0.1806,-0.1796,-0.1794,-0.1824,-0.1696,-0.1775,-0.1761,-0.1684,-0.1696,-0.1668,-0.1644,-0.1954,-0.1955,-0.1955,0,0,-0.1353,-0.1326,-0.1405,-0.1357,-0.1377,-0.1477,-0.1501,-0.1552,-0.1622,-0.165,-0.1722,-0.178,-0.1815,-0.1824,-0.1877,-0.1868,-0.1869,-0.1815,-0.1797,-0.1782,-0.1698,-0.1704,-0.1678,-0.1958,-0.1958,-0.1958,0,0,-0.1387,-0.144,-0.1477,-0.1423,-0.1479,-0.1581,-0.1569,-0.1632,-0.1696,-0.1697,-0.1799,-0.1818,-0.1819,-0.1872,-0.1897,-0.1851,-0.1933,-0.1931,-0.1793,-0.1772,-0.1755,-0.1639,-0.1956,0,0,0,0,0,-0.15,-0.1434,-0.1466,-0.1468,-0.1527,-0.1568,-0.1585,-0.1651,-0.1686,-0.1677,-0.1759,-0.1794,-0.1895,-0.192,-0.1937,-0.1854,-0.1989,-0.1983,-0.1978,-0.1802,-0.1779,-0.176,0,0,0,0,0,0,-0.1502,-0.1501,-0.1469,-0.1558,-0.1573,-0.1571,-0.1642,-0.1662,-0.1687,-0.1693,-0.1784,-0.1798,-0.1864,-0.1915,-0.193,-0.1847,-0.1951,-0.1986,-0.1982,-0.1978,-0.1794,-0.1775,-0.1759,0,0,0,0,0,-0.1503,-0.1503,-0.1556,-0.1563,-0.1576,-0.1659,-0.1642,-0.1658,-0.1683,-0.1776,-0.1792,-0.1723,-0.1863,-0.1878,-0.1924,-0.1838,-0.1941,-0.1947,-0.1983,-0.198,-0.1976,-0.1785,0,0,0,0,0,0,-0.1504,-0.1551,-0.1563,-0.1573,-0.1552,-0.1661,-0.1672,-0.1655,-0.1767,-0.1782,-0.172,-0.1723,-0.1863,-0.1875,-0.1886,-0.1828,-0.1933,-0.1939,-0.1942,-0.1981,-0.1978,-0.1975,0,0,0,0,0,0,-0.1552,-0.1558,-0.1569,-0.1551,-0.156,-0.1662,-0.1671,-0.1725,-0.1766,-0.1706,-0.1712,-0.1719,-0.1827,-0.1872,-0.1882,-0.1968,-0.1927,-0.1932,-0.1936,-0.1938,-0.1978,-0.1976,0,0,0,0,0,0,-0.1558,-0.1563,-0.1549,-0.1556,-0.1564,-0.1689,-0.1714,-0.1762,-0.1769,-0.17,-0.1768,-0.1767,-0.1822,-0.1834,-0.1878,-0.196,-0.1966,-0.1927,-0.1931,-0.1933,-0.1935,0,0,0,0,0,0,0,-0.1562,-0.1484,-0.1494,-0.1561,-0.1568,-0.1664,-0.1668,-0.1672,-0.1769,-0.1768,-0.1768,-0.1767,-0.1898,-0.1904,-0.1909,-0.1954,0,0,-0.1927,-0.1929,0,0,0,0,0,0,0,0,-0.1486,-0.1484,-0.1494,-0.1495,-0.1497,-0.1665,-0.1668,-0.1671,-0.1769,-0.1768,-0.1768,-0.1767,-0.19,-0.1904,-0.1909,0,0,0,0,0,0,0,0,0,0,0,0,0,0,0,-0.1494,-0.1495,0,-0.1665,-0.1668,-0.167,-0.1768,-0.1768,-0.1768,-0.1768,-0.1901,-0.1905,-0.1908,0,0,0,0,0,0,0,0,0,0,0,0,0,0,0,0,0,0,0,0,0,0,0,0,0,0,0,0,0,0,0,0,0,0,0,0,0,0,0,0,0,0,0,0,0,0,0,0,0,0,0,0,0,0,0,0,0,0,0,0,0,0,0,0,0,0,0,0,0]}]],[[{"header":{"parameterUnit":"kt","parameterCategory":2,"dx":1,"dy":1,"la1":30.253999710083008,"la2":30.299108505249023,"lo1":-89.0895004272461,"lo2":-89.04439544677734,"nx":28,"ny":28,"refTime":"2022-10-31T21:00:00:Z","depth":"2","parameterNumber":2,"parameterNumberName":"U-component_of_CURRENTS"},"data":[0.4586,0.4704,0.4665,0.4691,0.4829,0.4889,0.4902,0.4583,0.4429,0.4006,0.3813,0.3939,0.4193,0.3496,0.3439,0.3194,0.3565,0.3061,0.4422,0.4523,0.4613,0.4898,0.4692,0,0,0,0,0,0.4474,0.4565,0.4723,0.4896,0.4978,0.5169,0.531,0.518,0.5008,0.5001,0.4915,0.4438,0.4263,0.4405,0.4091,0.4061,0.4068,0.39,0.3895,0.4005,0.4102,0.3889,0.303,0.3025,0.302,0.3015,0,0,0.4355,0.4479,0.4655,0.4804,0.505,0.5203,0.5267,0.5381,0.5461,0.5473,0.5696,0.5565,0.5623,0.53,0.5171,0.5066,0.5507,0.5268,0.5308,0.536,0.5208,0.5001,0.4701,0.4707,0.4713,0.4718,0.4722,0,0.4315,0.4383,0.4546,0.4765,0.4992,0.5223,0.5468,0.5534,0.5885,0.5987,0.6129,0.6204,0.6303,0.6056,0.6021,0.5993,0.6119,0.5897,0.6781,0.5771,0.5567,0.5529,0.5563,0.5409,0.542,0.5428,0.5434,0.5438,0.4281,0.4336,0.4618,0.4781,0.4937,0.518,0.5391,0.5699,0.5888,0.6242,0.6324,0.6499,0.6606,0.6696,0.6656,0.6679,0.6907,0.6151,0.6091,0.6727,0.6688,0.6682,0.6675,0.5555,0.554,0.5528,0.5518,0,0.4272,0.4424,0.4621,0.4923,0.5014,0.5185,0.5564,0.578,0.6032,0.6285,0.6347,0.6623,0.6772,0.6913,0.709,0.7039,0.709,0.7023,0.6431,0.6327,0.6731,0.6713,0.6783,0.6773,0.6765,0.6759,0.6753,0,0.4373,0.45,0.472,0.4808,0.5059,0.5295,0.5596,0.583,0.6127,0.6322,0.6523,0.6684,0.6899,0.7005,0.7088,0.7076,0.727,0.7008,0.6973,0.6552,0.6485,0.7115,0.7085,0.7379,0.7379,0.7379,0.7379,0,0.4346,0.4592,0.4774,0.487,0.5199,0.5362,0.5568,0.5875,0.6065,0.633,0.6458,0.6735,0.6832,0.6998,0.7051,0.7058,0.7216,0.7227,0.6984,0.6958,0.6492,0.6415,0.738,0.738,0.738,0.738,0.738,0,0.4436,0.4538,0.4739,0.5038,0.5122,0.5275,0.565,0.5841,0.6098,0.6255,0.6481,0.6582,0.6772,0.6769,0.7004,0.696,0.6985,0.7001,0.7002,0.666,0.6543,0.6059,0.6153,0.6916,0.6913,0.6911,0.6908,0,0.4416,0.4554,0.4695,0.491,0.5022,0.5245,0.5442,0.5645,0.5852,0.6064,0.6209,0.6411,0.6461,0.6575,0.6702,0.6772,0.6846,0.6766,0.6788,0.6785,0.6487,0.6698,0.6203,0.6143,0.6876,0.6879,0.6882,0,0.4366,0.4566,0.4583,0.4696,0.4941,0.5054,0.5255,0.5503,0.5648,0.5859,0.6075,0.6299,0.6396,0.6442,0.6509,0.6587,0.6773,0.654,0.6541,0.6494,0.6965,0.6681,0.6674,0.6847,0.6853,0.6857,0.6856,0,0.4474,0.4545,0.4578,0.4726,0.4858,0.4995,0.5169,0.5318,0.5469,0.5583,0.5867,0.598,0.6158,0.6229,0.6202,0.6433,0.636,0.6361,0.6195,0.6408,0.6369,0.6391,0.6069,0.6064,0.6061,0.6057,0,0,0.4439,0.4517,0.4573,0.4647,0.4777,0.4907,0.5039,0.5126,0.533,0.5429,0.5457,0.5767,0.5797,0.5982,0.6077,0.6086,0.6094,0.5997,0.6301,0.6329,0.6354,0.633,0.6355,0.6051,0.6049,0.6048,0.6047,0,0.448,0.4515,0.4532,0.464,0.4791,0.489,0.4944,0.5115,0.5207,0.5374,0.543,0.5585,0.569,0.5767,0.5799,0.6019,0.5942,0.6068,0.6142,0.6266,0.6298,0.6327,0.631,0.6336,0.6038,0.6038,0.6039,0,0.4508,0.4563,0.4569,0.4692,0.4775,0.4886,0.4918,0.5025,0.5138,0.5112,0.5283,0.5372,0.5398,0.5543,0.5604,0.5507,0.575,0.5672,0.5693,0.5657,0.5776,0.5815,0.5849,0.5398,0.5396,0.5395,0,0,0.4535,0.4545,0.4683,0.4709,0.4767,0.4881,0.4939,0.5007,0.5091,0.5126,0.5195,0.5249,0.534,0.5358,0.5431,0.5502,0.5467,0.5598,0.5628,0.5653,0.5633,0.5756,0.5794,0.5388,0.5388,0.5387,0,0,0.4555,0.4645,0.4685,0.4702,0.4836,0.4939,0.4974,0.504,0.5112,0.5108,0.5119,0.5127,0.529,0.5236,0.5152,0.5391,0.5264,0.5279,0.5417,0.5453,0.5483,0.5449,0.5071,0,0,0,0,0,0.4647,0.4634,0.4669,0.4688,0.4786,0.492,0.4937,0.5008,0.5017,0.5071,0.5115,0.5064,0.522,0.5144,0.5143,0.527,0.5301,0.5316,0.5331,0.5531,0.557,0.5604,0,0,0,0,0,0,0.4655,0.4673,0.4672,0.4765,0.4791,0.4915,0.4904,0.4922,0.5015,0.5024,0.5058,0.5062,0.5045,0.5139,0.514,0.5263,0.507,0.5307,0.532,0.5332,0.5544,0.5577,0.5604,0,0,0,0,0,0.4662,0.4677,0.481,0.4766,0.4788,0.4894,0.4904,0.4919,0.499,0.5003,0.5011,0.5055,0.5043,0.5047,0.5139,0.5266,0.5069,0.507,0.5316,0.5326,0.5335,0.556,0,0,0,0,0,0,0.4668,0.4672,0.4816,0.4827,0.4778,0.4892,0.4907,0.4917,0.4963,0.4977,0.4992,0.4997,0.5042,0.5045,0.5047,0.5274,0.5069,0.5069,0.507,0.5323,0.5331,0.5339,0,0,0,0,0,0,0.4666,0.4679,0.4821,0.4832,0.4844,0.4889,0.4903,0.4903,0.496,0.4945,0.4954,0.4993,0.5033,0.5043,0.5045,0.5042,0.5068,0.5069,0.5069,0.5069,0.533,0.5336,0,0,0,0,0,0,0.4674,0.4685,0.4828,0.4838,0.4848,0.4967,0.4887,0.4969,0.5013,0.4938,0.5017,0.5019,0.503,0.5033,0.5044,0.504,0.5042,0.5068,0.5069,0.5069,0.5069,0,0,0,0,0,0,0,0.468,0.4578,0.4768,0.4842,0.4852,0.4935,0.4936,0.4937,0.5014,0.5015,0.5017,0.5019,0.5066,0.5067,0.5067,0.5037,0,0,0.5068,0.5069,0,0,0,0,0,0,0,0,0.4576,0.4578,0.4768,0.4772,0.4775,0.4935,0.4936,0.4937,0.5014,0.5015,0.5017,0.5018,0.5066,0.5067,0.5067,0,0,0,0,0,0,0,0,0,0,0,0,0,0,0,0.4769,0.4772,0,0.4935,0.4936,0.4937,0.5014,0.5015,0.5016,0.5017,0.5066,0.5067,0.5067,0,0,0,0,0,0,0,0,0,0,0,0,0,0,0,0,0,0,0,0,0,0,0,0,0,0,0,0,0,0,0,0,0,0,0,0,0,0,0,0,0,0,0,0,0,0,0,0,0,0,0,0,0,0,0,0,0,0,0,0,0,0,0,0,0,0,0,0,0]}],[{"header":{"parameterUnit":"kt","parameterCategory":2,"dx":1,"dy":1,"la1":30.253999710083008,"la2":30.299108505249023,"lo1":-89.0895004272461,"lo2":-89.04439544677734,"nx":28,"ny":28,"refTime":"2022-10-31T21:00:00:Z","depth":"2","parameterNumber":3,"parameterNumberName":"V-component_of_CURRENTS"},"data":[0.1106,0.1325,0.1442,0.1829,0.2014,0.2297,0.2471,0.2745,0.2877,0.2968,0.2852,0.2652,0.1976,0.1328,0.0673,0.0201,0.0116,0.0091,0.0172,0.0371,0.0387,-0.0058,-0.0089,0,0,0,0,0,0.104,0.118,0.1394,0.1689,0.1909,0.1976,0.2285,0.2469,0.2788,0.2882,0.2953,0.2404,0.1874,0.1279,0.0394,-0.0119,-0.0145,-0.0287,-0.0193,-0.0182,-0.0172,-0.0203,-0.0279,-0.028,-0.0281,-0.0282,0,0,0.0926,0.1053,0.1254,0.1497,0.1692,0.1922,0.209,0.2309,0.2556,0.2778,0.2726,0.2654,0.2135,0.1217,0.0682,0.0082,0.0085,-0.0152,-0.0145,-0.0137,-0.0168,-0.0146,-0.0234,-0.0234,-0.0235,-0.0235,-0.0235,0,0.0853,0.093,0.1094,0.134,0.151,0.1706,0.1903,0.2041,0.2195,0.2343,0.2502,0.2478,0.1997,0.1503,0.0816,0.0467,0.0143,0.0028,0.0102,0.0005,0.0039,-0.0004,-0.0001,-0.0015,-0.0014,-0.0014,-0.0013,-0.0013,0.0763,0.0861,0.1101,0.1223,0.1306,0.1494,0.1627,0.1725,0.1856,0.2013,0.211,0.1993,0.1923,0.1403,0.0859,0.0382,0.0286,0.0068,-0.0061,0.0005,-0.0041,-0.0038,-0.0036,-0.0003,-0.0004,-0.0005,-0.0006,0,0.0735,0.0804,0.0985,0.1165,0.123,0.1368,0.1535,0.1653,0.1701,0.1858,0.1872,0.1776,0.1579,0.1228,0.0894,0.0574,0.0283,0.0145,0.0226,0.0181,-0.002,-0.0021,-0.0048,-0.0052,-0.0054,-0.0056,-0.0058,0,0.0685,0.0792,0.0929,0.1015,0.1194,0.1249,0.1401,0.1456,0.1527,0.1653,0.1502,0.1518,0.1167,0.1009,0.071,0.0388,0.0451,0.0086,0.0035,0.0069,0.0063,0.0107,0.0104,0.013,0.013,0.013,0.0129,0,0.062,0.0761,0.0874,0.0927,0.1079,0.1143,0.1212,0.1281,0.1356,0.137,0.1407,0.1206,0.1114,0.0887,0.0568,0.0527,0.0361,0.0272,0.0048,0.0043,0.0057,0.0051,0.0129,0.0129,0.0129,0.0129,0.0129,0,0.0563,0.0665,0.0782,0.0943,0.0967,0.1034,0.1161,0.1214,0.1248,0.1228,0.1113,0.1002,0.0843,0.0664,0.0424,0.0443,0.0283,0.0167,0.0163,0.008,-0.0003,0.0072,0.0049,0.0114,0.0114,0.0114,0.0114,0,0.0529,0.0651,0.0654,0.0784,0.0858,0.0864,0.0939,0.0975,0.0966,0.1003,0.0814,0.0768,0.0545,0.0468,0.0354,0.0217,0.0152,0.0148,0.0084,0.0084,0.0038,0.0007,0.0036,0.0049,0.0111,0.0111,0.0111,0,0.0491,0.0568,0.0579,0.0657,0.0687,0.0722,0.077,0.0808,0.0868,0.0762,0.0798,0.0578,0.0461,0.0403,0.0249,0.0183,0.0144,0.0128,0.0125,0.0176,0.0104,0.0015,0.0009,0.0088,0.0088,0.0089,0.0109,0,0.0509,0.0549,0.0557,0.0621,0.0637,0.0648,0.0652,0.067,0.0638,0.0629,0.0548,0.0396,0.031,0.0219,0.016,0.009,0.0101,0.0045,0.0071,0.0051,0.0058,0.006,0.003,0.003,0.0029,0.0029,0,0,0.0484,0.0504,0.0489,0.0532,0.0545,0.0497,0.0529,0.0539,0.0504,0.0511,0.0454,0.0311,0.0222,0.0152,0.0113,0.0064,0.0069,0.011,0.0043,0.0044,0.0046,0.0054,0.0056,0.0028,0.0028,0.0027,0.0027,0,0.0478,0.0468,0.0491,0.0504,0.0487,0.0482,0.0475,0.0442,0.0442,0.044,0.0362,0.0259,0.0222,0.0148,0.0109,0.0066,0.006,0.0021,0.0084,0.0038,0.0041,0.0043,0.0051,0.0054,0.0026,0.0026,0.0026,0,0.0471,0.0471,0.0468,0.0457,0.0441,0.0463,0.0403,0.0384,0.0414,0.034,0.0362,0.027,0.0204,0.0159,0.0131,0.0137,0.0076,0.0071,0.0071,0.0123,0.0078,0.008,0.0081,0.0074,0.0075,0.0075,0,0,0.0484,0.0499,0.0459,0.0448,0.0438,0.0409,0.0399,0.0382,0.0354,0.0351,0.0322,0.0271,0.0216,0.0197,0.0155,0.0127,0.013,0.0082,0.0079,0.0078,0.0127,0.0083,0.0084,0.0078,0.0078,0.0078,0,0,0.0471,0.0449,0.0441,0.0425,0.0408,0.0375,0.0372,0.0355,0.0347,0.0335,0.03,0.0291,0.0239,0.0215,0.0252,0.0143,0.0144,0.0137,0.0183,0.018,0.0177,0.0251,0.0227,0,0,0,0,0,0.0455,0.0453,0.0446,0.0436,0.0402,0.0382,0.0381,0.0356,0.0334,0.035,0.0318,0.0296,0.0215,0.0248,0.0242,0.0204,0.0108,0.0103,0.0098,0.0148,0.0144,0.0141,0,0,0,0,0,0,0.045,0.044,0.0445,0.0408,0.0398,0.0382,0.0356,0.0352,0.0333,0.0331,0.0304,0.0296,0.0278,0.025,0.0244,0.0208,0.0229,0.0106,0.0102,0.0098,0.0146,0.0144,0.0141,0,0,0,0,0,0.0446,0.0438,0.0385,0.0409,0.0401,0.0362,0.0356,0.0353,0.0352,0.0306,0.03,0.0327,0.028,0.0272,0.0246,0.0211,0.0232,0.023,0.0103,0.01,0.0096,0.0145,0,0,0,0,0,0,0.0443,0.0463,0.0384,0.038,0.0394,0.0364,0.0359,0.0353,0.033,0.0321,0.0328,0.0326,0.0281,0.0275,0.0269,0.0212,0.0235,0.0233,0.0232,0.0101,0.0098,0.0095,0,0,0,0,0,0,0.0465,0.0461,0.0383,0.0365,0.0361,0.0366,0.0361,0.0345,0.0329,0.0356,0.0352,0.0327,0.0263,0.0277,0.0272,0.0251,0.0237,0.0235,0.0234,0.0233,0.0098,0.0096,0,0,0,0,0,0,0.0463,0.0459,0.0367,0.0364,0.036,0.0332,0.0351,0.031,0.0335,0.0358,0.0332,0.033,0.0263,0.026,0.0275,0.0256,0.0252,0.0237,0.0236,0.0235,0.0234,0,0,0,0,0,0,0,0.0461,0.0492,0.0386,0.0362,0.0359,0.0344,0.0345,0.0346,0.0335,0.0334,0.0332,0.0331,0.0248,0.0246,0.0244,0.026,0,0,0.0237,0.0236,0,0,0,0,0,0,0,0,0.0493,0.0492,0.0385,0.0384,0.0382,0.0345,0.0345,0.0346,0.0335,0.0334,0.0332,0.0331,0.0247,0.0245,0.0244,0,0,0,0,0,0,0,0,0,0,0,0,0,0,0,0.0385,0.0384,0,0.0345,0.0345,0.0346,0.0335,0.0334,0.0333,0.0332,0.0247,0.0245,0.0244,0,0,0,0,0,0,0,0,0,0,0,0,0,0,0,0,0,0,0,0,0,0,0,0,0,0,0,0,0,0,0,0,0,0,0,0,0,0,0,0,0,0,0,0,0,0,0,0,0,0,0,0,0,0,0,0,0,0,0,0,0,0,0,0,0,0,0,0,0]}]],[[{"header":{"parameterUnit":"kt","parameterCategory":2,"dx":1,"dy":1,"la1":30.253999710083008,"la2":30.299108505249023,"lo1":-89.0895004272461,"lo2":-89.04439544677734,"nx":28,"ny":28,"refTime":"2022-10-31T21:00:00:Z","depth":"4","parameterNumber":2,"parameterNumberName":"U-component_of_CURRENTS"},"data":[0.1556,0.1583,0.1614,0.1526,0.1518,0.1521,0.1603,0.1818,0.1872,0.2264,0.2343,0.2672,0.2828,0.3028,0.303,0.3073,0.3038,0.3472,0.3463,0.3549,0.3574,0.3596,0.3379,0,0,0,0,0,0.1639,0.1629,0.1675,0.1719,0.1759,0.1818,0.1969,0.2089,0.2435,0.2476,0.2735,0.2854,0.3007,0.3143,0.3079,0.3358,0.3466,0.3264,0.3317,0.3565,0.3592,0.3372,0,0,0,0,0,0,0.1769,0.1759,0.1843,0.1928,0.2,0.1974,0.2088,0.2211,0.2403,0.2906,0.2932,0.3234,0.3508,0.3506,0.3545,0.3551,0.3489,0.3353,0.3389,0.3417,0.3208,0.3081,0.2952,0,0,0,0,0,0.1875,0.1946,0.1972,0.2082,0.2166,0.221,0.2358,0.2474,0.2717,0.3047,0.3226,0.3438,0.357,0.3656,0.3718,0.3712,0.3917,0.3835,0.3848,0.3701,0.3645,0.3542,0.3533,0.3695,0.3699,0.3701,0.3702,0,0.2041,0.204,0.2164,0.2206,0.2255,0.2388,0.2457,0.2689,0.2763,0.3193,0.33,0.3702,0.3863,0.383,0.3957,0.3997,0.3914,0.3907,0.375,0.3688,0.3581,0.3564,0.3546,0.3724,0.3722,0.3721,0.3719,0,0.2109,0.2179,0.2185,0.2288,0.2353,0.241,0.2641,0.2695,0.2929,0.3169,0.3351,0.3685,0.3846,0.4063,0.4168,0.4041,0.4027,0.3953,0.4159,0.406,0.3601,0.3574,0.376,0.3752,0.3745,0.374,0.3735,0,0.2207,0.2214,0.2311,0.2305,0.2379,0.2445,0.2561,0.2605,0.2869,0.3067,0.3349,0.3531,0.3805,0.4004,0.4011,0.3965,0.4137,0.3811,0.372,0.3851,0.3825,0.3897,0.3873,0.4089,0.4087,0.4086,0.4085,0,0.2267,0.229,0.2309,0.2311,0.2359,0.2422,0.2473,0.2653,0.2787,0.3038,0.3237,0.3533,0.3734,0.3821,0.3929,0.3862,0.4055,0.3924,0.3689,0.3667,0.3879,0.3858,0.4083,0.4083,0.4082,0.4082,0.4081,0,0.2302,0.2311,0.2332,0.2361,0.2374,0.2404,0.2491,0.2539,0.2811,0.2911,0.3186,0.3414,0.3672,0.3588,0.3776,0.3674,0.3674,0.3657,0.3659,0.3466,0.3232,0.3407,0.3585,0.358,0.3576,0.3572,0.3569,0,0.231,0.2327,0.2342,0.2349,0.2342,0.2369,0.2431,0.2552,0.2645,0.2816,0.3048,0.3258,0.3259,0.3344,0.34,0.3426,0.3491,0.336,0.3452,0.3459,0.3163,0.3272,0.3316,0.3512,0.3519,0.3525,0.3528,0,0.231,0.2329,0.2339,0.2338,0.2348,0.234,0.2404,0.2488,0.2574,0.2717,0.2899,0.3066,0.3183,0.3257,0.3238,0.328,0.3399,0.3214,0.3216,0.3256,0.3523,0.3236,0.3242,0.3283,0.329,0.3295,0.3489,0,0.2278,0.2302,0.2318,0.2326,0.233,0.2329,0.2344,0.2376,0.2447,0.2538,0.2746,0.2814,0.2987,0.2951,0.2983,0.3122,0.3093,0.3009,0.296,0.3066,0.3131,0.3162,0.2805,0.2805,0.2805,0.2805,0,0,0.2253,0.2271,0.2284,0.229,0.2288,0.2283,0.2288,0.2308,0.2346,0.2447,0.2454,0.2689,0.2726,0.287,0.292,0.2884,0.2912,0.2876,0.3003,0.3024,0.3045,0.3112,0.3141,0.2806,0.2806,0.2806,0.2806,0,0.2217,0.2258,0.2288,0.2272,0.2276,0.225,0.2268,0.2255,0.2303,0.2389,0.2449,0.2582,0.2645,0.2718,0.2765,0.2868,0.2844,0.2836,0.295,0.2999,0.3019,0.3039,0.3108,0.3134,0.2807,0.2807,0.2807,0,0.2177,0.2185,0.221,0.2206,0.2206,0.2193,0.2198,0.2222,0.2245,0.2296,0.2384,0.2458,0.2543,0.262,0.267,0.2636,0.2786,0.2697,0.27,0.2833,0.2888,0.2912,0.2933,0.2658,0.2657,0.2656,0,0,0.2149,0.2187,0.2159,0.2195,0.2195,0.2182,0.2183,0.2201,0.2249,0.2288,0.2331,0.2422,0.251,0.2545,0.2618,0.2654,0.2723,0.2673,0.268,0.2685,0.2818,0.2876,0.2899,0.2651,0.2651,0.2651,0,0,0.2131,0.2138,0.2154,0.2193,0.2171,0.2132,0.2159,0.2165,0.2245,0.2308,0.2342,0.2367,0.249,0.2503,0.2449,0.2566,0.2549,0.2559,0.2513,0.2522,0.253,0.2674,0.2411,0,0,0,0,0,0.2093,0.2126,0.214,0.2145,0.215,0.2112,0.2109,0.2142,0.2193,0.2205,0.2316,0.2297,0.2506,0.2458,0.2463,0.2467,0.2597,0.2607,0.2616,0.2571,0.2581,0.2589,0,0,0,0,0,0,0.2094,0.2101,0.2138,0.2104,0.2105,0.2112,0.215,0.2157,0.2195,0.2208,0.2278,0.2295,0.2314,0.2452,0.2458,0.2461,0.2409,0.2601,0.2609,0.2616,0.2575,0.2583,0.259,0,0,0,0,0,0.2095,0.21,0.2123,0.2102,0.2103,0.2133,0.2154,0.2161,0.2207,0.2232,0.2251,0.2245,0.2309,0.2324,0.2456,0.2459,0.2405,0.2407,0.2606,0.2613,0.2618,0.2579,0,0,0,0,0,0,0.2096,0.2086,0.2122,0.212,0.2146,0.2135,0.2143,0.2164,0.2233,0.2247,0.2196,0.2205,0.2305,0.2317,0.2327,0.2458,0.2401,0.2404,0.2405,0.2611,0.2616,0.2621,0,0,0,0,0,0,0.2083,0.2085,0.2121,0.2175,0.218,0.2137,0.2144,0.2153,0.2237,0.2195,0.2203,0.2201,0.2334,0.2311,0.232,0.2327,0.2399,0.2401,0.2403,0.2404,0.2615,0.2619,0,0,0,0,0,0,0.2083,0.2084,0.2176,0.2179,0.2184,0.2164,0.2149,0.2182,0.2201,0.2194,0.2213,0.2218,0.233,0.2337,0.2314,0.2317,0.2325,0.2399,0.24,0.2401,0.2402,0,0,0,0,0,0,0,0.2083,0.2085,0.2135,0.2183,0.2187,0.2104,0.2103,0.2102,0.2202,0.2207,0.2212,0.2216,0.2386,0.2389,0.2391,0.2309,0,0,0.2399,0.24,0,0,0,0,0,0,0,0,0.2083,0.2085,0.2135,0.2135,0.2135,0.2104,0.2103,0.2102,0.2203,0.2207,0.221,0.2214,0.2387,0.2389,0.2391,0,0,0,0,0,0,0,0,0,0,0,0,0,0,0,0.2135,0.2135,0,0.2104,0.2103,0.2102,0.2203,0.2206,0.221,0.2213,0.2388,0.2389,0.2391,0,0,0,0,0,0,0,0,0,0,0,0,0,0,0,0,0,0,0,0,0,0,0,0,0,0,0,0,0,0,0,0,0,0,0,0,0,0,0,0,0,0,0,0,0,0,0,0,0,0,0,0,0,0,0,0,0,0,0,0,0,0,0,0,0,0,0,0,0]}],[{"header":{"parameterUnit":"kt","parameterCategory":2,"dx":1,"dy":1,"la1":30.253999710083008,"la2":30.299108505249023,"lo1":-89.0895004272461,"lo2":-89.04439544677734,"nx":28,"ny":28,"refTime":"2022-10-31T21:00:00:Z","depth":"4","parameterNumber":3,"parameterNumberName":"V-component_of_CURRENTS"},"data":[0.0753,0.0898,0.0977,0.1191,0.1319,0.1506,0.1604,0.1653,0.1632,0.1642,0.1404,0.1327,0.0884,0.1132,0.0452,0.0365,0.0276,-0.019,-0.0197,-0.0289,-0.0278,-0.0269,-0.0126,0,0,0,0,0,0.0712,0.0823,0.0971,0.117,0.1322,0.1432,0.1588,0.1647,0.1716,0.1675,0.1669,0.1407,0.096,0.0757,0.0461,0.0364,0.0025,0.0005,-0.0066,-0.0282,-0.027,-0.0136,0,0,0,0,0,0,0.0674,0.0762,0.0916,0.1088,0.1259,0.1408,0.1486,0.1575,0.1657,0.1683,0.1624,0.1348,0.1194,0.0742,0.0435,0.0148,0.0089,0.0014,0.0009,0.0017,0.0164,0.0269,0.0079,0,0,0,0,0,0.0645,0.0716,0.0834,0.1022,0.1172,0.1329,0.1484,0.1546,0.163,0.1658,0.1577,0.1374,0.1082,0.0729,0.0399,0.0108,-0.0026,-0.0158,-0.0153,-0.0074,-0.0021,-0.0042,-0.0017,-0.0226,-0.0224,-0.0223,-0.0223,0,0.0617,0.0679,0.0874,0.0972,0.1057,0.1209,0.1317,0.1409,0.1477,0.1494,0.1535,0.1372,0.1262,0.0755,0.0487,0.0069,0.0022,-0.0127,-0.0041,0.0001,-0.0029,-0.0005,0.0016,-0.0213,-0.0214,-0.0215,-0.0216,0,0.0608,0.0683,0.0813,0.0963,0.1021,0.1124,0.1296,0.1359,0.1377,0.1446,0.1473,0.1374,0.1137,0.0917,0.0583,0.0417,0.0143,0.0034,0.0233,0.0197,0.0023,0.0041,-0.0198,-0.0201,-0.0204,-0.0207,-0.0209,0,0.0609,0.0689,0.0815,0.0874,0.1009,0.1075,0.1184,0.1215,0.1273,0.1339,0.1285,0.1268,0.108,0.0923,0.0725,0.0432,0.0428,0.025,0.0195,0.0379,0.0394,0.0313,0.0323,0.0248,0.025,0.0252,0.0253,0,0.0585,0.0698,0.0795,0.0838,0.0966,0.1033,0.1106,0.1155,0.1221,0.1207,0.1236,0.1139,0.1111,0.0922,0.074,0.0767,0.0452,0.0458,0.0272,0.0268,0.0327,0.0334,0.0256,0.0256,0.0257,0.0257,0.0258,0,0.0582,0.0649,0.0746,0.0876,0.0902,0.0967,0.1065,0.1116,0.1151,0.1155,0.1142,0.1137,0.1078,0.1033,0.0803,0.0879,0.0736,0.0627,0.0615,0.0525,0.0497,0.0495,0.0466,0.0469,0.0472,0.0474,0.0477,0,0.0575,0.0654,0.0687,0.0789,0.0844,0.0895,0.0955,0.1014,0.1037,0.1075,0.1051,0.1076,0.104,0.1043,0.096,0.0852,0.0754,0.0868,0.0579,0.057,0.054,0.0498,0.0759,0.0513,0.0509,0.0505,0.0503,0,0.0556,0.0636,0.0646,0.071,0.0772,0.0807,0.0864,0.0932,0.0965,0.0996,0.1036,0.1031,0.1011,0.0997,0.0968,0.089,0.0802,0.0845,0.0837,0.0751,0.0583,0.0546,0.0521,0.0773,0.077,0.0768,0.0528,0,0.0604,0.0641,0.0644,0.0706,0.0738,0.0766,0.0808,0.0848,0.089,0.092,0.0945,0.0921,0.0925,0.092,0.0918,0.0876,0.0834,0.0814,0.0767,0.0778,0.0672,0.0653,0.0854,0.0852,0.0851,0.085,0,0,0.0601,0.0628,0.0635,0.0663,0.0697,0.0717,0.0756,0.0778,0.082,0.0849,0.085,0.0863,0.0851,0.0851,0.0874,0.0862,0.0791,0.0849,0.0787,0.0781,0.0775,0.0675,0.0658,0.0847,0.0846,0.0846,0.0845,0,0.0611,0.0622,0.0632,0.0657,0.0686,0.0707,0.072,0.0749,0.0775,0.0822,0.0819,0.0824,0.0836,0.082,0.0812,0.0846,0.0757,0.0842,0.0872,0.0778,0.0774,0.077,0.0672,0.0658,0.0841,0.0842,0.0842,0,0.0628,0.0642,0.0643,0.0665,0.0678,0.0707,0.0705,0.0717,0.0756,0.0738,0.0793,0.0786,0.0763,0.0778,0.078,0.0757,0.0709,0.076,0.0766,0.0749,0.0647,0.0644,0.0641,0.0676,0.0676,0.0676,0,0,0.0642,0.065,0.0668,0.0667,0.0674,0.0697,0.0705,0.0721,0.0736,0.0748,0.0759,0.0755,0.0755,0.0754,0.0743,0.0746,0.0668,0.0744,0.0752,0.0759,0.0746,0.0647,0.0644,0.0675,0.0675,0.0675,0,0,0.0641,0.0657,0.0678,0.067,0.0692,0.0697,0.0699,0.0722,0.0745,0.0749,0.0744,0.0742,0.0762,0.073,0.073,0.0727,0.0688,0.0688,0.0765,0.0774,0.0781,0.0772,0.069,0,0,0,0,0,0.0666,0.0654,0.0673,0.0674,0.0683,0.0691,0.0694,0.0709,0.0725,0.0738,0.0754,0.0726,0.0727,0.0727,0.0722,0.0735,0.0671,0.0671,0.0672,0.0771,0.0781,0.079,0,0,0,0,0,0,0.0666,0.0667,0.0673,0.0676,0.0678,0.0691,0.0696,0.07,0.0724,0.0728,0.0727,0.0724,0.0708,0.0727,0.0723,0.0737,0.0691,0.0671,0.0672,0.0672,0.0775,0.0783,0.079,0,0,0,0,0,0.0667,0.0667,0.0679,0.0676,0.0678,0.0695,0.0697,0.0701,0.0728,0.0705,0.0706,0.0742,0.0708,0.0705,0.0724,0.074,0.0694,0.0693,0.0671,0.0672,0.0673,0.0779,0,0,0,0,0,0,0.0667,0.0674,0.0679,0.0681,0.0682,0.0696,0.0699,0.0701,0.0704,0.0705,0.0716,0.0718,0.0707,0.0705,0.0702,0.0743,0.0696,0.0695,0.0694,0.0672,0.0672,0.0673,0,0,0,0,0,0,0.0674,0.0675,0.068,0.0687,0.0689,0.0696,0.0699,0.0681,0.0703,0.0716,0.0718,0.0717,0.0701,0.0705,0.0703,0.0675,0.0698,0.0697,0.0696,0.0695,0.0672,0.0673,0,0,0,0,0,0,0.0674,0.0675,0.0687,0.0688,0.069,0.0705,0.068,0.0684,0.0726,0.0714,0.0728,0.0728,0.07,0.0699,0.0704,0.0676,0.0675,0.0698,0.0697,0.0696,0.0696,0,0,0,0,0,0,0,0.0675,0.0664,0.0671,0.069,0.0691,0.069,0.069,0.0691,0.0726,0.0727,0.0727,0.0728,0.0706,0.0705,0.0703,0.0677,0,0,0.0698,0.0697,0,0,0,0,0,0,0,0,0.0664,0.0664,0.0671,0.0671,0.0671,0.069,0.069,0.0691,0.0726,0.0726,0.0727,0.0728,0.0706,0.0705,0.0703,0,0,0,0,0,0,0,0,0,0,0,0,0,0,0,0.0671,0.0671,0,0.069,0.069,0.069,0.0726,0.0726,0.0727,0.0727,0.0705,0.0704,0.0703,0,0,0,0,0,0,0,0,0,0,0,0,0,0,0,0,0,0,0,0,0,0,0,0,0,0,0,0,0,0,0,0,0,0,0,0,0,0,0,0,0,0,0,0,0,0,0,0,0,0,0,0,0,0,0,0,0,0,0,0,0,0,0,0,0,0,0,0,0]}]]]